, AZ

(GMT )
Fort Huachuca

Weather History for KALK - November, 2012

Change the Weather History Date:

Thursday, November 15, 2012

  Actual Average Record
Temperature  
Mean Temperature 60 °F -  
Max Temperature 72 °F - - ()
Min Temperature 48 °F - - ()
Degree Days  
Heating Degree Days 5    
Growing Degree Days 10 (Base 50)    
Moisture  
Dew Point 18 °F    
Average Humidity 20    
Maximum Humidity 31    
Minimum Humidity 14    
Precipitation  
Precipitation 0.00 in - - ()
Sea Level Pressure  
Sea Level Pressure 30.01 in    
Wind  
Wind Speed 3 mph (ESE)    
Max Wind Speed 10 mph    
Max Gust Speed -    
Averages and records for this station are not official NWS values.
T = Trace of Precipitation, MM = Missing Value Source: NWS Daily Summary

Daily Weather History Graph

Daily Weather History Graph

Search for Another Location

Airport or City:

Trip Planner

Search our weather history database for the weather conditions in past years. The results will help you decide how hot, cold, wet, or windy it might be!

Date:

Astronomy

Nov. 15, 2012 Rise Set
Actual Time 6:50 AM MST 5:22 PM MST
Civil Twilight 6:24 AM MST 5:48 PM MST
Nautical Twilight 5:54 AM MST 6:17 PM MST
Astronomical Twilight 5:26 AM MST 6:46 PM MST
Moon 8:45 AM MST (11/15) 7:21 PM MST (11/15)
Length of Visible Light 11h 23m
Length of Day
10h 32m
Waxing Crescent, 5% of the Moon is Illuminated
Nov 15
Waxing Crescent
Nov 20
First Quarter
Nov 28
Full
Dec 6
Last Quarter
Dec 13
New

Hourly Weather History & Observations

Time (MST) Temp. Dew Point Humidity Pressure Visibility Wind Dir Wind Speed Gust Speed Precip Events Conditions
12:56 AM 52.0 °F 12.9 °F 21% 29.99 in - Calm Calm - N/A   Clear
1:56 AM 54.0 °F 14.0 °F 21% 29.97 in - Calm Calm - N/A   Clear
2:56 AM 52.0 °F 12.9 °F 21% 29.96 in - South 3.5 mph - N/A   Clear
3:56 AM 48.9 °F 19.0 °F 31% 29.97 in - West 3.5 mph - N/A   Clear
4:56 AM 54.0 °F 10.9 °F 18% 29.97 in - Calm Calm - N/A   Clear
5:56 AM 53.1 °F 12.9 °F 20% 30.00 in - Calm Calm - N/A   Clear
6:56 AM 50.0 °F 14.0 °F 24% 30.21 in - Calm Calm - N/A   Clear
7:56 AM 54.0 °F 17.1 °F 23% 30.04 in - Calm Calm - N/A   Clear
8:56 AM 61.0 °F 16.0 °F 17% 30.04 in - NE 4.6 mph - N/A   Clear
9:56 AM 66.9 °F 18.0 °F 15% 30.04 in - ENE 5.8 mph - N/A   Clear
10:56 AM 66.9 °F 19.0 °F 16% 30.03 in - East 10.4 mph - N/A   Clear
11:56 AM 71.1 °F 19.9 °F 14% 30.03 in - ENE 8.1 mph - N/A   Clear
12:56 PM 72.0 °F 19.9 °F 14% 29.99 in - Variable 3.5 mph - N/A   Clear
1:56 PM 70.0 °F 19.9 °F 15% 29.98 in - East 4.6 mph - N/A   Clear
2:56 PM 71.1 °F 21.0 °F 15% 29.97 in - East 5.8 mph - N/A   Clear
3:56 PM 70.0 °F 19.0 °F 14% 29.97 in - East 6.9 mph - N/A   Clear
5:56 PM 64.0 °F 19.9 °F 18% 30.00 in - Calm Calm - N/A   Clear
6:56 PM 63.0 °F 19.0 °F 18% 30.04 in - Calm Calm - N/A   Clear
7:56 PM 61.0 °F 19.9 °F 21% 30.03 in - SSE 4.6 mph - N/A   Clear
8:56 PM 60.1 °F 21.0 °F 22% 30.03 in - Calm Calm - N/A   Partly Cloudy
9:56 PM 57.9 °F 21.9 °F 25% 30.02 in - West 5.8 mph - N/A   Overcast
10:56 PM 57.0 °F 23.0 °F 27% 30.02 in - SW 6.9 mph - N/A   Overcast
11:56 PM 60.1 °F 23.0 °F 24% 29.99 in - SW 9.2 mph - N/A   Mostly Cloudy